Location: Huppendorf
(49.9333°N, 11.1500°E)
Time: 16:21:44
(UTC+00:00)

STARLINK-79 - Pass Details

Date: 27 February 2020
Orbit: 529 x 531 km, 53.0° (Epoch: 30 March)

Event Time Altitude Azimuth Distance (km) Brightness Sun altitude
Rises 18:41:34 0° 282° (WNW) 2,670 8.9 -18.1°
Reaches altitude 10° 18:43:49 10° 287° (WNW) 1,781 7.5 -18.5°
Maximum altitude 18:47:48 56° 6° (N) 639 3.9 -19.1°
Enters shadow 18:48:45 43° 55° (NE) 751 3.9 -19.3°
